Location: Monroe
(41.9160°N, 83.3980°W)
Time: 16:16:35
(UTC-04:00)

ISS - All Passes

Search period start: 30 July 2015 00:00
Search period end: 09 August 2015 00:00
Orbit: 402 x 403 km, 51.6° (Epoch: 30 July)

Date Brightness Start Highest point End Pass type
(mag) Time Alt. Az. Time Alt. Az. Time Alt. Az.
30 Jul - 00:48:19 10° WNW 00:50:58 22° NNW 00:53:36 10° NE visible
30 Jul - 02:26:17 10° NW 02:28:15 15° N 02:30:14 10° NE visible
30 Jul - 04:02:39 10° NW 04:05:29 27° NNE 04:08:21 10° E visible
30 Jul - 05:38:54 10° WNW 05:42:04 50° SW 05:45:14 10° SE visible
30 Jul - 22:18:15 10° SSW 22:21:18 38° SE 22:24:21 10° ENE visible
30 Jul - 23:54:49 10° W 23:57:46 31° NNW 00:00:44 10° NE visible
31 Jul - 01:32:56 10° NW 01:34:57 15° N 01:36:58 10° NE visible
31 Jul - 03:09:45 10° NW 03:12:16 20° NNE 03:14:48 10° ENE visible
31 Jul - 04:45:49 10° NW 04:49:05 84° NNE 04:52:21 10° ESE visible
31 Jul - 06:23:58 10° WSW 06:25:07 11° SW 06:26:08 10° SSW daylight
31 Jul - 21:25:56 10° S 21:28:22 20° SE 21:30:52 10° E visible
31 Jul - 23:01:25 10° WSW 23:04:35 49° NNW 23:07:47 10° NE visible
01 Aug - 00:39:21 10° NW 00:41:36 17° N 00:43:50 10° NNE visible
01 Aug - 02:16:44 10° NNW 02:18:56 17° N 02:21:09 10° NE visible
01 Aug - 03:52:48 10° NW 03:55:58 46° NNE 03:59:07 10° ESE visible
01 Aug - 05:29:37 10° W 05:32:13 21° SW 05:34:45 10° S visible
01 Aug - 20:34:55 10° SE 20:35:25 10° SE 20:36:05 10° ESE daylight
01 Aug - 22:08:09 10° SW 22:11:25 90° NW 22:14:42 10° NE visible
01 Aug - 23:45:38 10° WNW 23:48:12 21° NNW 23:50:45 10° NE visible
02 Aug - 01:23:31 10° NW 01:25:30 15° N 01:27:30 10° NE visible
02 Aug - 02:59:46 10° NW 03:02:42 29° NNE 03:05:37 10° E night (unlit)
02 Aug - 04:36:05 10° WNW 04:39:11 41° SW 04:42:16 10° SSE visible
02 Aug - 21:15:09 10° SSW 21:18:16 45° SE 21:21:24 10° ENE visible
02 Aug - 22:51:55 10° W 22:54:47 28° NNW 22:57:41 10° NE visible
03 Aug - 00:30:01 10° NW 00:32:00 15° N 00:33:58 10° NE visible
03 Aug - 02:06:41 10° NW 02:09:17 21° NNE 02:11:53 10° ENE visible
03 Aug - 03:42:46 10° WNW 03:46:02 83° SW 03:49:17 10° SE night (unlit)
03 Aug - 20:22:29 10° S 20:25:07 23° SE 20:27:49 10° E daylight
03 Aug - 21:58:16 10° WSW 22:01:24 43° NNW 22:04:32 10° NE visible
03 Aug - 23:36:16 10° NW 23:38:26 16° N 23:40:35 10° NNE visible
04 Aug - 01:13:30 10° NNW 01:15:46 17° N 01:18:02 10° NE visible
04 Aug - 02:49:31 10° NW 02:52:43 53° NNE 02:55:55 10° ESE night (unlit)
04 Aug - 04:26:32 10° W 04:28:54 18° SW 04:31:12 10° S night (unlit)
04 Aug - 19:30:37 10° SSE 19:31:58 12° SE 19:33:26 10° ESE daylight
04 Aug - 21:04:45 10° WSW 21:08:00 77° NW 21:11:16 10° NE daylight
04 Aug - 22:42:21 10° WNW 22:44:49 20° NNW 22:47:18 10° NE visible
05 Aug - 00:20:06 10° NNW 00:22:08 15° N 00:24:10 10° NE visible
05 Aug - 01:56:17 10° NW 01:59:16 32° NNE 02:02:15 10° E visible
05 Aug - 03:32:40 10° WNW 03:35:42 35° SW 03:38:41 10° SSE night (unlit)
05 Aug - 20:11:27 10° SW 20:14:37 54° SE 20:17:50 10° ENE daylight
05 Aug - 21:48:24 10° W 21:51:12 26° NNW 21:54:01 10° NE visible
05 Aug - 23:26:27 10° NW 23:28:25 15° N 23:30:22 10° NE visible
06 Aug - 01:03:00 10° NW 01:05:40 23° NNE 01:08:21 10° ENE visible
06 Aug - 02:39:06 10° WNW 02:42:21 71° SW 02:45:35 10° SE night (unlit)
06 Aug - 19:18:28 10° SSW 19:21:16 27° SE 19:24:06 10° ENE daylight
06 Aug - 20:54:30 10° W 20:57:35 38° NNW 21:00:40 10° NE daylight
06 Aug - 22:32:32 10° NW 22:34:39 16° N 22:36:45 10° NNE visible
07 Aug - 00:09:37 10° NNW 00:11:57 18° NNE 00:14:18 10° ENE visible
07 Aug - 01:45:38 10° NW 01:48:51 60° NNE 01:52:05 10° ESE visible
07 Aug - 03:22:52 10° W 03:24:59 16° SW 03:27:00 10° S night (unlit)
07 Aug - 18:26:07 10° SSE 18:27:54 14° SE 18:29:47 10° E daylight
07 Aug - 20:00:44 10° WSW 20:03:58 67° NNW 20:07:13 10° NE daylight
07 Aug - 21:38:26 10° WNW 21:40:50 19° NNW 21:43:14 10° NNE visible
07 Aug - 23:16:04 10° NNW 23:18:08 16° N 23:20:12 10° NE visible
08 Aug - 00:52:10 10° NW 00:55:13 35° NNE 00:58:16 10° E visible
08 Aug - 02:28:40 10° WNW 02:31:35 30° SW 02:34:28 10° SSE night (unlit)
08 Aug - 19:07:10 10° SW 19:10:22 63° SE 19:13:37 10° ENE daylight
08 Aug - 20:44:16 10° WNW 20:47:00 24° NNW 20:49:44 10° NE daylight
08 Aug - 22:22:16 10° NW 22:24:13 15° N 22:26:10 10° NE visible
